Weather History for Dallas Love, TX

Change the Weather History Date:

Friday, July 12, 2013

  Actual Average Record
Temperature  
Mean Temperature 90 °F -  
Max Temperature 102 °F 94 °F 109 °F (1998)
Min Temperature 79 °F 75 °F 71 °F (1999)
Cooling Degree Days 24    
Growing Degree Days 40 (Base 50)    
Moisture  
Dew Point 68 °F    
Average Humidity 51    
Maximum Humidity 77    
Minimum Humidity 29    
Precipitation  
Precipitation 0.00 in - - ()
Sea Level Pressure  
Sea Level Pressure 29.90 in    
Wind  
Wind Speed 7 mph (ESE)    
Max Wind Speed 14 mph    
Max Gust Speed 22 mph    
Visibility 10 miles    
Events      
Averages and records for this station are not official NWS values.
T = Trace of Precipitation, MM = Missing Value Source: NWS Daily Summary

Daily Weather History Graph

Daily Weather History Graph

Search for Another Location

Airport:

Trip Planner

Search our weather history database for the weather conditions in past years. The results will help you decide how hot, cold, wet, or windy it might be!

Date:

Astronomy

Jul. 12, 2013 Rise Set
Actual Time 6:28 AM CDT 8:37 PM CDT
Civil Twilight 6:00 AM CDT 9:05 PM CDT
Nautical Twilight 5:25 AM CDT 9:39 PM CDT
Astronomical Twilight 4:49 AM CDT 10:16 PM CDT
Moon 10:30 AM CDT (7/12) 11:06 PM CDT (7/12)
Length of Visible Light 15h 05m
Length of Day
14h 09m
Waxing Crescent, 17% of the Moon is Illuminated
Jul 12
Waxing Crescent
Jul 15
First Quarter
Jul 22
Full
Jul 29
Last Quarter
Aug 6
New

Hourly Weather History & Observations

Time (CDT) Temp. Heat Index Dew Point Humidity Pressure Visibility Wind Dir Wind Speed Gust Speed Precip Events Conditions
12:53 AM 82.0 °F 85.5 °F 69.1 °F 65% 29.91 in 10.0 mi SE 6.9 mph - N/A   Mostly Cloudy
1:53 AM 82.0 °F 85.5 °F 69.1 °F 65% 29.90 in 10.0 mi South 8.1 mph - N/A   Mostly Cloudy
2:53 AM 81.0 °F 84.4 °F 70.0 °F 69% 29.90 in 10.0 mi SE 4.6 mph - N/A   Mostly Cloudy
3:53 AM 80.1 °F 83.2 °F 70.0 °F 71% 29.90 in 10.0 mi ESE 5.8 mph - N/A   Mostly Cloudy
4:53 AM 79.0 °F - 71.1 °F 77% 29.90 in 10.0 mi ESE 4.6 mph - N/A   Mostly Cloudy
5:53 AM 79.0 °F - 70.0 °F 74% 29.91 in 10.0 mi SE 8.1 mph - N/A   Scattered Clouds
6:53 AM 79.0 °F - 70.0 °F 74% 29.92 in 10.0 mi ESE 6.9 mph - N/A   Scattered Clouds
7:53 AM 80.1 °F 82.9 °F 69.1 °F 69% 29.94 in 10.0 mi ESE 10.4 mph - N/A   Partly Cloudy
8:53 AM 82.9 °F 86.5 °F 69.1 °F 63% 29.96 in 10.0 mi ESE 8.1 mph - N/A   Partly Cloudy
9:53 AM 86.0 °F 90.7 °F 70.0 °F 59% 29.96 in 10.0 mi Variable 4.6 mph - N/A   Partly Cloudy
10:53 AM 89.1 °F 94.1 °F 70.0 °F 53% 29.95 in 10.0 mi ESE 4.6 mph - N/A   Partly Cloudy
11:53 AM 93.0 °F 97.4 °F 68.0 °F 44% 29.95 in 10.0 mi Variable 3.5 mph - N/A   Partly Cloudy
12:53 PM 95.0 °F 99.5 °F 68.0 °F 41% 29.93 in 10.0 mi ESE 6.9 mph - N/A   Partly Cloudy
1:53 PM 98.1 °F 102.4 °F 66.9 °F 36% 29.91 in 10.0 mi ENE 9.2 mph - N/A   Partly Cloudy
2:53 PM 99.0 °F 102.3 °F 64.9 °F 33% 29.90 in 10.0 mi SSE 5.8 mph - N/A   Partly Cloudy
3:53 PM 100.0 °F 103.0 °F 64.0 °F 31% 29.88 in 10.0 mi ESE 8.1 mph - N/A   Scattered Clouds
4:53 PM 100.0 °F 103.6 °F 64.9 °F 32% 29.87 in 10.0 mi SE 5.8 mph - N/A   Partly Cloudy
5:53 PM 100.9 °F 103.3 °F 63.0 °F 29% 29.86 in 10.0 mi ESE 13.8 mph 21.9 mph N/A   Partly Cloudy
6:53 PM 100.0 °F 101.8 °F 63.0 °F 29% 29.85 in 10.0 mi ESE 6.9 mph - N/A   Partly Cloudy
7:53 PM 98.1 °F 101.2 °F 64.9 °F 34% 29.86 in 10.0 mi East 10.4 mph - N/A   Partly Cloudy
8:53 PM 96.1 °F 98.8 °F 64.9 °F 36% 29.86 in 10.0 mi ESE 8.1 mph - N/A   Partly Cloudy
9:53 PM 93.9 °F 97.5 °F 66.9 °F 41% 29.88 in 10.0 mi East 9.2 mph - N/A   Clear
10:53 PM 93.0 °F 96.4 °F 66.9 °F 42% 29.89 in 10.0 mi East 10.4 mph - N/A   Clear
11:53 PM 91.0 °F 95.2 °F 68.0 °F 47% 29.90 in 10.0 mi East 10.4 mph - N/A   Clear